Location: Unspecified
(0.0000°N, 0.0000°E)
Time: 14:00:29
(UTC+00:00)

THORAD DELTA 1 DEB - Pass Details

Date: 18 February 2026
Orbit: 1451 x 1739 km, 101.5° (Epoch: 4 March)

Event Time Altitude Azimuth Distance (km) Brightness Sun altitude
Rises 21:17:43 0° 182° (S) 4,721 ? -44.8°
Reaches altitude 10° 21:20:53 10° 189° (S) 3,700 ? -45.6°
Maximum altitude 21:28:33 37° 253° (WSW) 2,144 ? -47.4°
Drops below altitude 10° 21:36:00 10° 318° (NW) 3,571 ? -49.2°
Sets 21:39:02 0° 326° (NW) 4,540 ? -49.9°
